KKS-1 (KISEKI) (33499 NORAD) Tracking and Keplerian Element Data

This shows tracking and keplerian element data for the satellite.

Feedback or suggestion? Click here.




ElementValue
Catalog33499
NameKKS-1 (KISEKI)
Epoch Orbit74331
Epoch Day324.827699
Epoch Year2022
RAAN209.2839
Inclination98.1946
Eccentricity0.0009039
Argument of Perigee166.5228
Mean Anonmoly193.6224
Mean Motion14.76280406
Decay Rate7.25E-06
L11 33499U 09002H 22324.82769900 .00000725 00000+0 11234-3 0 9990
L22 33499 98.1946 209.2839 0009039 166.5228 193.6224 14.76280406743314



Live tracking and technical data element details for KKS-1 (KISEKI) (NORAD 33499). KKS-1 (KISEKI) can be tracked NOW for your location showing map with azimuth and elevation plus other details from your city location.







IsCatalogInMostPopularTable: catalog: 33499, numindb: 351
Update: records affected: 1



GetName: 33499 KKS-1 (KISEKI)

Hit Count: updated at: Mon, 28 Nov 2022 04:13:17 GMT